FENGYUN 1C DEB

Satellite information

Favourite Embed

Satellite Type and Status

DEBRISIN ORBIT

Key statistics

Satellite FENGYUN 1C DEB at a glance.

Uptime

9666

Days in orbit

Revolutions

≈ 14.0

Per day

Orbit

SSO

Sun Synchronous Orbit

Inclination

98.3

Latest

Satellite identification and parameters

Extended collection of information and parameters for FENGYUN 1C DEB.

Object identification

Identified? True

Debris? True

Object name: FENGYUN 1C DEB

International designator: 1999-025CS

Object number (NORAD): 29800

Object ID (CCSDS): 29800

Country: PEOPLES REPUBLIC OF CHINA (PRC)

Current information (Y/N): Y

RCS size: SMALL

Orbital parameters

Period: 102.99 minutes

Inclination: 98.2959 deg

SMA: 7278.206 km

Apoapsis: 996.541 km

Periapsis: 803.6 km

RAAN: 324.3093 deg

Eccentricy: 0.01325472

Argument of periapsis: 5.0719 deg

Mean anomaly: 49.9304 deg

Mean motion: 13.9819029 rev/day

Mean motion (dot): 0.0000338 rev/day2

B* drag term: 0.0022263339 1/REarth

Two-line elements (TLE)

Creation date: Oct. 25, 2025, 10:45 a.m.

Reference frame: TEME

Reference center: EARTH

Epoch: Oct. 25, 2025, 1:26 a.m. UTC

TLE line 0: 0 FENGYUN 1C DEB

TLE line 1: 1 29800U 99025CS 25298.06026241 .00003380 00000-0 22263-2 0 9992

TLE line 2: 2 29800 98.2959 324.3093 0132547 5.0719 49.9304 13.98190290948968

Live tracking on map

Real-time ground track for satellite FENGYUN 1C DEB.

In-orbit conjunctions

A list of the most updated potential collisions computed for object FENGYUN 1C DEB.

Target Orbit TCA Probability of collision Miss distance Type
SL-8 R/B LEO 2025-08-20 11:52:08 0.0001276511 207.0 (m) ROCKET BODY
OBJECT D LEO 2025-03-23 05:14:46 0.0001500156 816.0 (m) UNKNOWN
COSMOS 1634 LEO 2025-01-04 20:32:05 0.0001028327 207.0 (m) PAYLOAD

Associated space launch

Chinese polar orbiting meteorological satellite

FENGYUN 1C DEB was lifted into orbit during the mission ‘Long March 4B | Feng Yun 1C’, on board a Long March 4B space rocket.

The launch took place on May 10, 1999, 1:33 a.m. from Launch Complex 7.

For more information about the launch, click the button.

Launch to space Long March 4B | Feng Yun 1C
Long March 4B | Feng Yun 1C

Agency: N/A

Status: Launch Successful

Launch date: May 10, 1999, 1:33 a.m. UTC

Rocket: Long March 4B

Launch pad: Launch Complex 7

Location: Taiyuan Satellite Launch Center, People's Republic of China

...

Latest news about this satellite

There are no fresh news available about this satellite. Check back as we update our databases every day.


Newsletter sign-up

Weekly statistics, charts and insights to help you stay on top of the space industry.